Location: Unspecified
(0.0000°N, 0.0000°E)
Time: 09:43:59
(UTC+00:00)

Vanguard 2 - Pass Details

Date: 21 September 2019
Orbit: 552 x 2939 km, 32.9° (Epoch: 20 February)

Event Time Altitude Azimuth Distance (km) Brightness Sun altitude
Rises 03:03:18 0° 279° (W) 6,565 - -42.5°
Reaches altitude 10° 03:10:52 10° 298° (WNW) 5,165 - -40.6°
Maximum altitude 03:18:14 15° 329° (NNW) 4,190 - -38.8°
Exits shadow 03:20:54 14° 343° (NNW) 4,044 11.0 -38.1°
Drops below altitude 10° 03:24:18 10° 1° (N) 4,084 11.2 -37.2°
Sets 03:29:05 0° 24° (NNE) 4,583 11.8 -36.1°
